RYR87WW EDJA-LICA

Flight info

Callsign RYR87WW
Flight time 1h 31m
Altitude 35000
Route KPT4A KPT Z999 BEMKI L607 XEBIX Y740 NATAG DCT LORLO DCT BORMI DCT ERDON DCT TUFTE DCT SUXUB DCT GALTI DCT EVINO DCT ARBUM
Aircraft B738/M-SDE2E3FGHIRWXY/LB1

Departure

Time 2026-05-05 20:00
Airport Memmingen Allgau Airport (EDJA)

Arrival

Time 2026-05-05 21:31
Airport Lamezia Terme Sant'Eufemia International Airport (LICA)
Time Latitude Longitude Altitude Speed Heading
2026-05-05 19:41 47.98865 10.23236 2076 ft 0 kts 44°
2026-05-05 19:55 47.98867 10.23248 2078 ft 3 kts 83°
2026-05-05 19:55 47.98849 10.23288 2077 ft 7 kts 124°
2026-05-05 19:55 47.98850 10.23372 2077 ft 9 kts 73°
2026-05-05 19:56 47.98873 10.23470 2081 ft 14 kts 68°
2026-05-05 19:56 47.98912 10.23640 2076 ft 15 kts 81°
2026-05-05 19:56 47.98858 10.23751 2080 ft 14 kts 147°
2026-05-05 19:56 47.98849 10.23871 2074 ft 13 kts 59°
2026-05-05 19:57 47.98895 10.23987 2075 ft 13 kts 60°
2026-05-05 19:57 47.98930 10.24076 2073 ft 16 kts 60°
2026-05-05 19:57 47.99020 10.24305 2070 ft 22 kts 58°
2026-05-05 19:57 47.99106 10.24519 2070 ft 25 kts 59°
2026-05-05 19:58 47.99191 10.24732 2069 ft 23 kts 59°
2026-05-05 19:58 47.99270 10.24935 2066 ft 22 kts 59°
2026-05-05 19:58 47.99349 10.25132 2064 ft 22 kts 59°
2026-05-05 19:58 47.99430 10.25303 2060 ft 16 kts 37°
2026-05-05 19:59 47.99436 10.25344 2060 ft 3 kts 198°
2026-05-05 19:59 47.99426 10.25329 2060 ft 3 kts 232°
2026-05-05 19:59 47.99423 10.25321 2060 ft 2 kts 241°
2026-05-05 19:59 47.99351 10.25135 2064 ft 52 kts 239°
2026-05-05 20:00 47.99048 10.24372 2069 ft 117 kts 239°
2026-05-05 20:00 47.98541 10.23089 2170 ft 162 kts 239°
2026-05-05 20:00 47.98011 10.21621 3049 ft 158 kts 242°
2026-05-05 20:00 47.97455 10.20214 3871 ft 164 kts 239°
2026-05-05 20:01 47.96793 10.18623 4153 ft 196 kts 239°
2026-05-05 20:01 47.96024 10.16784 4384 ft 222 kts 239°
2026-05-05 20:01 47.95162 10.14715 4729 ft 246 kts 239°
2026-05-05 20:01 47.94246 10.12519 5532 ft 251 kts 239°
2026-05-05 20:02 47.93189 10.10445 6517 ft 253 kts 222°
2026-05-05 20:02 47.91647 10.09152 7392 ft 261 kts 201°
2026-05-05 20:02 47.89823 10.08802 8222 ft 272 kts 179°
2026-05-05 20:02 47.87971 10.09557 9143 ft 281 kts 162°
2026-05-05 20:03 47.86164 10.10731 9987 ft 286 kts 160°
2026-05-05 20:03 47.84301 10.11974 10419 ft 306 kts 160°
2026-05-05 20:03 47.82275 10.13326 10638 ft 331 kts 159°
2026-05-05 20:03 47.80139 10.14748 11194 ft 341 kts 159°
2026-05-05 20:04 47.77955 10.16198 11983 ft 344 kts 159°
2026-05-05 20:04 47.75769 10.17643 12898 ft 345 kts 159°
2026-05-05 20:04 47.73557 10.19098 13649 ft 351 kts 159°
2026-05-05 20:04 47.71302 10.20575 14305 ft 356 kts 159°
2026-05-05 20:05 47.69028 10.22058 15066 ft 358 kts 159°
2026-05-05 20:05 47.66741 10.23545 15813 ft 361 kts 159°
2026-05-05 20:05 47.64432 10.25048 16537 ft 364 kts 159°
2026-05-05 20:05 47.62105 10.26564 17253 ft 367 kts 159°
2026-05-05 20:06 47.59756 10.28092 17959 ft 370 kts 159°
2026-05-05 20:06 47.57388 10.29630 18635 ft 373 kts 159°
2026-05-05 20:06 47.55036 10.31310 19266 ft 376 kts 159°
2026-05-05 20:06 47.52592 10.32650 19866 ft 375 kts 167°
2026-05-05 20:07 47.50080 10.33722 20520 ft 376 kts 169°
2026-05-05 20:07 47.47545 10.34733 21122 ft 378 kts 169°
2026-05-05 20:07 47.45004 10.35755 21788 ft 379 kts 169°
2026-05-05 20:07 47.42455 10.36812 22416 ft 382 kts 169°
2026-05-05 20:08 47.39893 10.37904 23006 ft 384 kts 169°
2026-05-05 20:08 47.37321 10.39021 23512 ft 387 kts 168°
2026-05-05 20:08 47.34724 10.40159 23978 ft 390 kts 168°
2026-05-05 20:08 47.32113 10.41308 24468 ft 392 kts 168°
2026-05-05 20:09 47.29534 10.42444 24979 ft 394 kts 168°
2026-05-05 20:09 47.26897 10.43606 25424 ft 397 kts 168°
2026-05-05 20:09 47.24244 10.44768 25846 ft 400 kts 169°
2026-05-05 20:09 47.21572 10.45942 26249 ft 403 kts 168°
2026-05-05 20:10 47.18881 10.47125 26689 ft 404 kts 169°
2026-05-05 20:10 47.16182 10.48315 27124 ft 406 kts 169°
2026-05-05 20:10 47.13464 10.49504 27510 ft 408 kts 169°
2026-05-05 20:10 47.10733 10.50697 27887 ft 411 kts 169°
2026-05-05 20:11 47.07987 10.51898 28267 ft 414 kts 169°
2026-05-05 20:11 47.05214 10.53110 28642 ft 417 kts 168°
2026-05-05 20:11 47.02432 10.54354 29017 ft 420 kts 168°
2026-05-05 20:11 46.99629 10.55628 29331 ft 423 kts 168°
2026-05-05 20:12 46.96813 10.56912 29736 ft 425 kts 168°
2026-05-05 20:12 46.93981 10.58201 30104 ft 427 kts 168°
2026-05-05 20:12 46.91143 10.59487 30416 ft 428 kts 168°
2026-05-05 20:12 46.88306 10.60770 30875 ft 426 kts 169°
2026-05-05 20:13 46.85485 10.62047 31363 ft 423 kts 169°
2026-05-05 20:13 46.82679 10.63313 31765 ft 422 kts 169°
2026-05-05 20:13 46.79870 10.64569 32064 ft 423 kts 169°
2026-05-05 20:13 46.77052 10.65826 32349 ft 424 kts 169°
2026-05-05 20:14 46.74232 10.67086 32754 ft 423 kts 169°
2026-05-05 20:14 46.71443 10.68500 33176 ft 428 kts 163°
2026-05-05 20:14 46.68749 10.70383 33478 ft 430 kts 161°
2026-05-05 20:14 46.66072 10.72335 33822 ft 431 kts 161°
2026-05-05 20:15 46.63402 10.74295 34224 ft 429 kts 161°
2026-05-05 20:15 46.60743 10.76240 34559 ft 427 kts 161°
2026-05-05 20:15 46.58078 10.78169 34747 ft 428 kts 161°
2026-05-05 20:15 46.55410 10.80087 35026 ft 427 kts 161°
2026-05-05 20:16 46.52751 10.81994 35340 ft 425 kts 161°
2026-05-05 20:16 46.50095 10.83889 35563 ft 426 kts 161°
2026-05-05 20:16 46.47434 10.85784 35816 ft 426 kts 160°
2026-05-05 20:16 46.44778 10.87673 36072 ft 425 kts 161°
2026-05-05 20:17 46.42117 10.89562 36243 ft 427 kts 161°
2026-05-05 20:17 46.39441 10.91459 36425 ft 429 kts 160°
2026-05-05 20:17 46.36767 10.93356 36714 ft 427 kts 160°
2026-05-05 20:17 46.34099 10.95235 37041 ft 426 kts 160°
2026-05-05 20:18 46.31424 10.97121 37028 ft 429 kts 160°
2026-05-05 20:18 46.26079 11.00895 37045 ft 430 kts 160°
2026-05-05 20:19 46.20742 11.04669 37044 ft 424 kts 160°
2026-05-05 20:19 46.15452 11.08400 37031 ft 422 kts 160°
2026-05-05 20:20 46.10180 11.12090 37039 ft 422 kts 160°
2026-05-05 20:20 46.04846 11.15821 37033 ft 431 kts 160°
2026-05-05 20:21 45.99405 11.19672 36994 ft 440 kts 160°
2026-05-05 20:21 45.93873 11.23650 37010 ft 443 kts 159°
2026-05-05 20:22 45.88383 11.27599 37014 ft 442 kts 159°
2026-05-05 20:22 45.82925 11.31513 37002 ft 434 kts 160°
2026-05-05 20:23 45.77531 11.35361 36999 ft 432 kts 160°
2026-05-05 20:23 45.72152 11.39184 37004 ft 431 kts 160°
2026-05-05 20:24 45.66776 11.42997 37003 ft 431 kts 160°
2026-05-05 20:24 45.61394 11.46807 37000 ft 432 kts 160°
2026-05-05 20:25 45.56000 11.50618 36983 ft 433 kts 160°
2026-05-05 20:25 45.50587 11.54434 37006 ft 435 kts 160°
2026-05-05 20:26 45.45145 11.58263 36995 ft 438 kts 160°
2026-05-05 20:26 45.39672 11.62106 37006 ft 440 kts 160°
2026-05-05 20:27 45.34170 11.65960 37018 ft 442 kts 160°
2026-05-05 20:27 45.28635 11.69830 36995 ft 444 kts 160°
2026-05-05 20:28 45.23092 11.73696 36999 ft 445 kts 160°
2026-05-05 20:28 45.17526 11.77571 36995 ft 446 kts 160°
2026-05-05 20:29 45.11955 11.81441 36985 ft 446 kts 160°
2026-05-05 20:29 45.06387 11.85300 36992 ft 446 kts 160°
2026-05-05 20:30 45.00820 11.89150 36987 ft 445 kts 160°
2026-05-05 20:30 44.95294 11.92963 36965 ft 444 kts 160°
2026-05-05 20:31 44.89740 11.96787 36974 ft 444 kts 161°
2026-05-05 20:31 44.84189 12.00601 36980 ft 444 kts 161°
2026-05-05 20:32 44.78629 12.04411 36976 ft 444 kts 161°
2026-05-05 20:32 44.73065 12.08217 36955 ft 445 kts 161°
2026-05-05 20:33 44.67494 12.12020 36972 ft 445 kts 161°
2026-05-05 20:33 44.61913 12.15820 36948 ft 446 kts 161°
2026-05-05 20:34 44.56315 12.19624 36970 ft 448 kts 161°
2026-05-05 20:34 44.50696 12.23435 36974 ft 450 kts 161°
2026-05-05 20:35 44.45052 12.27253 36970 ft 452 kts 161°
2026-05-05 20:35 44.39380 12.31083 36974 ft 453 kts 161°
2026-05-05 20:36 44.33694 12.34916 36970 ft 454 kts 161°
2026-05-05 20:36 44.28035 12.38721 36993 ft 455 kts 161°
2026-05-05 20:37 44.22336 12.42545 36987 ft 455 kts 160°
2026-05-05 20:37 44.16635 12.46362 36992 ft 455 kts 160°
2026-05-05 20:38 44.10891 12.50200 36996 ft 455 kts 160°
2026-05-05 20:38 44.05222 12.53978 36996 ft 455 kts 160°
2026-05-05 20:39 43.99517 12.57773 36999 ft 455 kts 160°
2026-05-05 20:39 43.93808 12.61562 37000 ft 455 kts 160°
2026-05-05 20:40 43.88102 12.65342 36989 ft 454 kts 161°
2026-05-05 20:40 43.82393 12.69115 36984 ft 454 kts 161°
2026-05-05 20:41 43.76688 12.72877 36992 ft 454 kts 161°
2026-05-05 20:41 43.70986 12.76630 36991 ft 454 kts 161°
2026-05-05 20:42 43.65291 12.80370 36995 ft 453 kts 161°
2026-05-05 20:42 43.59602 12.84098 37003 ft 452 kts 161°
2026-05-05 20:43 43.53915 12.87817 37011 ft 452 kts 161°
2026-05-05 20:43 43.48222 12.91532 37001 ft 453 kts 161°
2026-05-05 20:44 43.42528 12.95241 37009 ft 452 kts 161°
2026-05-05 20:44 43.36842 12.98937 37016 ft 451 kts 160°
2026-05-05 20:45 43.28321 13.04474 37032 ft 453 kts 160°
2026-05-05 20:45 43.22701 13.08421 37026 ft 455 kts 159°
2026-05-05 20:46 43.18047 13.11781 37028 ft 455 kts 158°
2026-05-05 20:46 43.12438 13.15793 37017 ft 455 kts 158°
2026-05-05 20:47 43.05902 13.20420 37029 ft 455 kts 159°
2026-05-05 20:47 43.01181 13.23746 37025 ft 456 kts 159°
2026-05-05 20:48 42.95546 13.27708 37036 ft 455 kts 159°
2026-05-05 20:48 42.89917 13.31660 37038 ft 455 kts 159°
2026-05-05 20:49 42.84288 13.35605 37024 ft 455 kts 159°
2026-05-05 20:49 42.78653 13.39548 37048 ft 456 kts 159°
2026-05-05 20:50 42.73026 13.43475 37043 ft 458 kts 159°
2026-05-05 20:50 42.67349 13.47440 37047 ft 460 kts 158°
2026-05-05 20:51 42.61751 13.51705 37015 ft 462 kts 155°
2026-05-05 20:51 42.56193 13.56087 37042 ft 462 kts 155°
2026-05-05 20:52 42.50614 13.60439 37059 ft 463 kts 156°
2026-05-05 20:52 42.45016 13.64758 37051 ft 463 kts 156°
2026-05-05 20:53 42.39396 13.69072 37032 ft 464 kts 156°
2026-05-05 20:53 42.33786 13.73373 37042 ft 463 kts 156°
2026-05-05 20:54 42.28185 13.77658 37042 ft 462 kts 156°
2026-05-05 20:54 42.22606 13.81918 37051 ft 461 kts 156°
2026-05-05 20:55 42.17023 13.86171 37025 ft 461 kts 155°
2026-05-05 20:55 42.11448 13.90411 37047 ft 460 kts 155°
2026-05-05 20:56 42.05877 13.94638 37041 ft 460 kts 155°
2026-05-05 20:56 42.00311 13.98853 37050 ft 459 kts 155°
2026-05-05 20:57 41.94740 14.03065 37051 ft 459 kts 155°
2026-05-05 20:57 41.89169 14.07268 37055 ft 459 kts 155°
2026-05-05 20:58 41.83542 14.11291 37058 ft 458 kts 158°
2026-05-05 20:58 41.77870 14.15032 37067 ft 457 kts 159°
2026-05-05 20:59 41.72158 14.18791 37057 ft 458 kts 158°
2026-05-05 20:59 41.66454 14.22585 37046 ft 458 kts 158°
2026-05-05 21:00 41.60755 14.26388 37064 ft 458 kts 158°
2026-05-05 21:00 41.55057 14.30190 37082 ft 458 kts 158°
2026-05-05 21:01 41.49357 14.33998 37065 ft 459 kts 158°
2026-05-05 21:01 41.43671 14.37863 37078 ft 459 kts 157°
2026-05-05 21:02 41.37980 14.41741 37076 ft 459 kts 157°
2026-05-05 21:02 41.32280 14.45611 37062 ft 460 kts 157°
2026-05-05 21:03 41.26567 14.49476 37048 ft 461 kts 158°
2026-05-05 21:03 41.20860 14.53328 37070 ft 460 kts 158°
2026-05-05 21:04 41.15151 14.57172 37079 ft 460 kts 158°
2026-05-05 21:04 41.09447 14.61007 37084 ft 459 kts 158°
2026-05-05 21:05 41.03752 14.64828 37083 ft 458 kts 158°
2026-05-05 21:05 40.98064 14.68637 37091 ft 458 kts 158°
2026-05-05 21:06 40.92382 14.72434 37087 ft 457 kts 158°
2026-05-05 21:06 40.86704 14.76221 37082 ft 457 kts 158°
2026-05-05 21:07 40.81071 14.79971 37066 ft 456 kts 158°
2026-05-05 21:07 40.75337 14.83779 36518 ft 461 kts 158°
2026-05-05 21:08 40.72478 14.85675 36003 ft 459 kts 158°
2026-05-05 21:08 40.69624 14.87568 35391 ft 460 kts 158°
2026-05-05 21:08 40.66798 14.89439 34796 ft 461 kts 158°
2026-05-05 21:08 40.63928 14.91337 34164 ft 463 kts 158°
2026-05-05 21:09 40.61040 14.93245 33388 ft 466 kts 158°
2026-05-05 21:09 40.58137 14.95160 32679 ft 467 kts 158°
2026-05-05 21:09 40.55224 14.97082 31990 ft 469 kts 158°
2026-05-05 21:09 40.52306 14.99005 31299 ft 470 kts 158°
2026-05-05 21:10 40.49379 15.00932 30598 ft 472 kts 158°
2026-05-05 21:10 40.46449 15.02860 30053 ft 469 kts 158°
2026-05-05 21:10 40.43541 15.04773 29452 ft 466 kts 158°
2026-05-05 21:10 40.40652 15.06672 28894 ft 462 kts 158°
2026-05-05 21:11 40.37757 15.08573 28350 ft 457 kts 158°
2026-05-05 21:11 40.34922 15.10432 27807 ft 453 kts 158°
2026-05-05 21:11 40.32154 15.12244 27306 ft 449 kts 158°
2026-05-05 21:11 40.29372 15.14064 26798 ft 445 kts 158°
2026-05-05 21:12 40.26612 15.15867 26279 ft 442 kts 158°
2026-05-05 21:12 40.23868 15.17657 25758 ft 439 kts 158°
2026-05-05 21:12 40.21145 15.19432 25247 ft 436 kts 158°
2026-05-05 21:12 40.18441 15.21194 24737 ft 433 kts 158°
2026-05-05 21:13 40.15751 15.22944 24240 ft 431 kts 158°
2026-05-05 21:13 40.13077 15.24683 23745 ft 428 kts 158°
2026-05-05 21:13 40.10414 15.26413 23151 ft 426 kts 158°
2026-05-05 21:13 40.07772 15.28128 22617 ft 423 kts 158°
2026-05-05 21:14 40.05150 15.29829 22092 ft 419 kts 158°
2026-05-05 21:14 40.02550 15.31514 21581 ft 416 kts 158°
2026-05-05 21:14 39.99974 15.33183 21086 ft 412 kts 158°
2026-05-05 21:14 39.97418 15.34837 20598 ft 408 kts 158°
2026-05-05 21:15 39.94883 15.36475 20131 ft 405 kts 157°
2026-05-05 21:15 39.92373 15.38096 19662 ft 401 kts 157°
2026-05-05 21:15 39.89881 15.39705 19200 ft 398 kts 157°
2026-05-05 21:15 39.87411 15.41297 18736 ft 395 kts 157°
2026-05-05 21:16 39.84961 15.42875 18235 ft 392 kts 156°
2026-05-05 21:16 39.82522 15.44445 17721 ft 389 kts 156°
2026-05-05 21:16 39.80108 15.45998 17228 ft 386 kts 156°
2026-05-05 21:16 39.77711 15.47540 16749 ft 383 kts 156°
2026-05-05 21:17 39.75334 15.49066 16292 ft 379 kts 156°
2026-05-05 21:17 39.72979 15.50578 15837 ft 376 kts 156°
2026-05-05 21:17 39.70642 15.52076 15387 ft 373 kts 156°
2026-05-05 21:17 39.68324 15.53562 14946 ft 371 kts 156°
2026-05-05 21:18 39.66018 15.55039 14490 ft 368 kts 156°
2026-05-05 21:18 39.63727 15.56504 14042 ft 366 kts 156°
2026-05-05 21:18 39.61449 15.57960 13558 ft 364 kts 156°
2026-05-05 21:18 39.59213 15.59389 13083 ft 362 kts 156°
2026-05-05 21:19 39.56962 15.60827 12624 ft 359 kts 156°
2026-05-05 21:19 39.54730 15.62251 12175 ft 356 kts 156°
2026-05-05 21:19 39.52513 15.63665 11739 ft 354 kts 156°
2026-05-05 21:19 39.50312 15.65068 11303 ft 351 kts 157°
2026-05-05 21:20 39.48125 15.66460 10914 ft 348 kts 157°
2026-05-05 21:20 39.45989 15.67821 10777 ft 337 kts 157°
2026-05-05 21:20 39.43916 15.69142 10618 ft 327 kts 157°
2026-05-05 21:20 39.41904 15.70422 10480 ft 318 kts 157°
2026-05-05 21:21 39.39946 15.71666 10338 ft 309 kts 158°
2026-05-05 21:21 39.38042 15.72875 10210 ft 301 kts 158°
2026-05-05 21:21 39.36187 15.74052 10079 ft 294 kts 158°
2026-05-05 21:21 39.34355 15.75211 9778 ft 292 kts 158°
2026-05-05 21:22 39.32534 15.76362 9487 ft 291 kts 158°
2026-05-05 21:22 39.30722 15.77507 9207 ft 289 kts 158°
2026-05-05 21:22 39.28921 15.78646 8937 ft 287 kts 157°
2026-05-05 21:22 39.27129 15.79778 8646 ft 286 kts 157°
2026-05-05 21:23 39.25347 15.80904 8368 ft 285 kts 157°
2026-05-05 21:23 39.23573 15.82024 8089 ft 283 kts 157°
2026-05-05 21:23 39.21808 15.83138 7809 ft 282 kts 156°
2026-05-05 21:23 39.20051 15.84247 7530 ft 281 kts 156°
2026-05-05 21:24 39.18298 15.85352 7258 ft 280 kts 156°
2026-05-05 21:24 39.16553 15.86452 6979 ft 279 kts 156°
2026-05-05 21:24 39.14812 15.87549 6699 ft 278 kts 156°
2026-05-05 21:24 39.13075 15.88642 6405 ft 278 kts 155°
2026-05-05 21:25 39.11330 15.89741 6057 ft 279 kts 155°
2026-05-05 21:25 39.09588 15.90837 5772 ft 278 kts 155°
2026-05-05 21:25 39.07855 15.91927 5496 ft 277 kts 155°
2026-05-05 21:25 39.06156 15.92994 5226 ft 275 kts 155°
2026-05-05 21:26 39.04455 15.94062 5086 ft 268 kts 155°
2026-05-05 21:26 39.02774 15.95055 4845 ft 265 kts 159°
2026-05-05 21:26 39.01055 15.95883 4566 ft 263 kts 161°
2026-05-05 21:26 38.99336 15.96688 4289 ft 262 kts 161°
2026-05-05 21:27 38.97635 15.97495 4006 ft 260 kts 161°
2026-05-05 21:27 38.95938 15.98305 3745 ft 260 kts 161°
2026-05-05 21:27 38.94319 15.99309 3440 ft 261 kts 141°
2026-05-05 21:27 38.93294 16.01160 3324 ft 250 kts 113°
2026-05-05 21:28 38.92881 16.03253 3228 ft 235 kts 100°
2026-05-05 21:28 38.92660 16.05257 3138 ft 218 kts 98°
2026-05-05 21:28 38.92472 16.07129 3020 ft 205 kts 98°
2026-05-05 21:28 38.92289 16.08877 2898 ft 191 kts 99°
2026-05-05 21:29 38.92117 16.10577 2314 ft 198 kts 98°
2026-05-05 21:29 38.91924 16.12359 1685 ft 200 kts 98°
2026-05-05 21:29 38.91727 16.14065 1419 ft 186 kts 98°
2026-05-05 21:29 38.91542 16.15648 1176 ft 174 kts 97°
2026-05-05 21:30 38.91369 16.17120 997 ft 157 kts 97°
2026-05-05 21:30 38.91211 16.18463 763 ft 148 kts 98°
2026-05-05 21:30 38.91062 16.19764 582 ft 146 kts 98°
2026-05-05 21:30 38.90910 16.21053 379 ft 145 kts 97°
2026-05-05 21:31 38.90763 16.22338 172 ft 146 kts 99°
2026-05-05 21:31 38.90614 16.23601 34 ft 136 kts 98°
2026-05-05 21:31 38.90497 16.24597 31 ft 62 kts 99°
2026-05-05 21:31 38.90507 16.24849 34 ft 18 kts 73°
2026-05-05 21:32 38.90551 16.24980 37 ft 13 kts 60°
2026-05-05 21:32 38.90625 16.25033 33 ft 13 kts 352°
2026-05-05 21:32 38.90682 16.24940 31 ft 15 kts 276°
2026-05-05 21:32 38.90695 16.24812 31 ft 14 kts 276°
2026-05-05 21:33 38.90710 16.24689 31 ft 14 kts 278°
2026-05-05 21:33 38.90753 16.24591 31 ft 13 kts 324°
2026-05-05 21:33 38.90805 16.24504 31 ft 12 kts 280°
2026-05-05 21:33 38.90814 16.24442 30 ft 6 kts 297°
2026-05-05 21:34 38.90850 16.24434 31 ft 5 kts 11°
2026-05-05 21:34 38.90869 16.24443 31 ft 3 kts 34°
2026-05-05 21:34 38.90878 16.24454 30 ft 0 kts 51°